When you browse on this site, cookies collect data to enhance your experience and personalize the content and advertising you see.
Visit our Privacy Policy to learn more. By continuing to use the site, you agree to this use of cookies and data.
  • In Austria
  • List of Countries
  • For 7 days
  • Water Temperature
  • Weather Map
  • News
  • Weather Widgets
  • user-avatar
    Login

    Hourly Weather Troy

    Today, 28 May, Thursday

    Time Temperature Precipitation Wind Pressure Humidity
    00:00 +23°C° 0 mm 1 mps 741 mmHg 72%
    01:00 +23°C° 0.1 mm 1 mps 741 mmHg 74%
    02:00 +23°C° 0.1 mm 2 mps 740 mmHg 77%
    03:00 +21°C° 0.1 mm 2 mps 740 mmHg 80%
    04:00 +21°C° 0.4 mm 3 mps 740 mmHg 82%
    05:00 +21°C° 0.4 mm 3 mps 740 mmHg 84%
    06:00 +21°C° 0.4 mm 4 mps 741 mmHg 85%
    07:00 +21°C° 0.3 mm 4 mps 740 mmHg 85%
    08:00 +21°C° 0.3 mm 4 mps 740 mmHg 85%
    09:00 +21°C° 0.3 mm 3 mps 740 mmHg 85%
    10:00 +22°C° 0 mm 3 mps 740 mmHg 80%
    11:00 +24°C° 0 mm 3 mps 739 mmHg 74%
    12:00 +25°C° 0 mm 3 mps 739 mmHg 69%
    13:00 +26°C° 0 mm 4 mps 739 mmHg 65%
    14:00 +27°C° 0 mm 4 mps 738 mmHg 61%
    15:00 +28°C° 0 mm 5 mps 738 mmHg 57%
    16:00 +27°C° 0.3 mm 5 mps 738 mmHg 63%
    17:00 +26°C° 0.3 mm 5 mps 737 mmHg 70%
    18:00 +23°C° 0.3 mm 5 mps 737 mmHg 76%
    19:00 +23°C° 0 mm 5 mps 737 mmHg 77%
    20:00 +22°C° 0 mm 5 mps 737 mmHg 79%
    21:00 +22°C° 0 mm 5 mps 738 mmHg 80%
    22:00 +22°C° 0 mm 4 mps 738 mmHg 79%
    23:00 +21°C° 0 mm 4 mps 737 mmHg 78%

    Tomorrow, 29 May, Friday

    Time Temperature Precipitation Wind Pressure Humidity
    00:00 +21°C° 0 mm 4 mps 737 mmHg 77%
    01:00 +20°C° 0 mm 3 mps 737 mmHg 79%
    02:00 +20°C° 0 mm 3 mps 737 mmHg 82%
    03:00 +19°C° 0 mm 3 mps 737 mmHg 84%
    04:00 +19°C° 0.2 mm 2 mps 737 mmHg 84%
    05:00 +19°C° 0.2 mm 2 mps 738 mmHg 85%
    06:00 +19°C° 0.2 mm 2 mps 738 mmHg 85%
    07:00 +19°C° 0.6 mm 2 mps 738 mmHg 86%
    08:00 +19°C° 0.6 mm 2 mps 738 mmHg 87%
    09:00 +18°C° 0.6 mm 2 mps 738 mmHg 88%
    10:00 +18°C° 1.1 mm 3 mps 738 mmHg 85%
    11:00 +17°C° 1.1 mm 4 mps 738 mmHg 82%
    12:00 +17°C° 1.1 mm 4 mps 738 mmHg 78%
    13:00 +18°C° 0.1 mm 4 mps 738 mmHg 72%
    14:00 +18°C° 0.1 mm 3 mps 738 mmHg 65%
    15:00 +19°C° 0.1 mm 2 mps 738 mmHg 58%
    16:00 +19°C° 0.1 mm 2 mps 739 mmHg 62%
    17:00 +19°C° 0.1 mm 3 mps 739 mmHg 66%
    18:00 +19°C° 0.1 mm 3 mps 740 mmHg 69%
    19:00 +18°C° 0 mm 3 mps 740 mmHg 71%
    20:00 +17°C° 0 mm 4 mps 740 mmHg 73%
    21:00 +15°C° 0 mm 4 mps 741 mmHg 75%
    22:00 +14°C° 0 mm 4 mps 741 mmHg 75%
    23:00 +13°C° 0 mm 4 mps 741 mmHg 76%

    Day after tomorrow, 30 May, Saturday

    Time Temperature Precipitation Wind Pressure Humidity
    00:00 +13°C° 0 mm 5 mps 741 mmHg 76%
    01:00 +12°C° 0 mm 5 mps 740 mmHg 81%
    02:00 +12°C° 0 mm 4 mps 741 mmHg 82%
    03:00 +11°C° 0 mm 4 mps 741 mmHg 84%
    04:00 +11°C° 0 mm 4 mps 741 mmHg 82%
    05:00 +11°C° 0 mm 4 mps 742 mmHg 80%
    06:00 +11°C° 0 mm 4 mps 743 mmHg 78%
    07:00 +12°C° 0 mm 5 mps 743 mmHg 71%
    08:00 +14°C° 0 mm 5 mps 743 mmHg 64%
    09:00 +15°C° 0 mm 5 mps 743 mmHg 57%
    10:00 +16°C° 0 mm 5 mps 743 mmHg 54%
    11:00 +16°C° 0 mm 5 mps 743 mmHg 52%
    12:00 +17°C° 0 mm 5 mps 744 mmHg 49%
    13:00 +17°C° 0 mm 5 mps 743 mmHg 49%
    14:00 +17°C° 0 mm 5 mps 743 mmHg 49%
    15:00 +17°C° 0 mm 5 mps 743 mmHg 49%
    16:00 +16°C° 0 mm 5 mps 744 mmHg 51%
    17:00 +15°C° 0 mm 4 mps 744 mmHg 54%
    18:00 +14°C° 0 mm 4 mps 744 mmHg 56%
    19:00 +13°C° 0 mm 4 mps 745 mmHg 58%
    20:00 +12°C° 0 mm 4 mps 745 mmHg 61%
    21:00 +10°C° 0 mm 3 mps 745 mmHg 63%
    22:00 +10°C° 0 mm 3 mps 746 mmHg 61%
    23:00 +9°C° 0 mm 3 mps 746 mmHg 58%

    31 May, Sunday

    Time Temperature Precipitation Wind Pressure Humidity
    00:00 +9°C° 0 mm 2 mps 746 mmHg 55%
    01:00 +8°C° 0 mm 2 mps 746 mmHg 57%
    02:00 +8°C° 0 mm 2 mps 746 mmHg 58%
    03:00 +7°C° 0 mm 2 mps 746 mmHg 60%
    04:00 +8°C° 0 mm 2 mps 747 mmHg 59%
    05:00 +9°C° 0 mm 2 mps 747 mmHg 57%
    06:00 +9°C° 0 mm 2 mps 748 mmHg 56%
    07:00 +11°C° 0 mm 3 mps 748 mmHg 52%
    08:00 +12°C° 0 mm 3 mps 748 mmHg 47%
    09:00 +14°C° 0 mm 4 mps 748 mmHg 43%
    10:00 +16°C° 0 mm 3 mps 748 mmHg 40%
    11:00 +17°C° 0 mm 3 mps 747 mmHg 37%
    12:00 +18°C° 0 mm 3 mps 747 mmHg 34%
    13:00 +18°C° 0 mm 3 mps 747 mmHg 35%
    14:00 +18°C° 0 mm 3 mps 746 mmHg 37%
    15:00 +19°C° 0 mm 3 mps 746 mmHg 38%
    16:00 +18°C° 0 mm 3 mps 746 mmHg 42%
    17:00 +17°C° 0 mm 3 mps 746 mmHg 47%
    18:00 +17°C° 0 mm 3 mps 746 mmHg 51%
    19:00 +16°C° 0 mm 3 mps 746 mmHg 56%
    20:00 +14°C° 0 mm 3 mps 746 mmHg 60%
    21:00 +13°C° 0 mm 3 mps 746 mmHg 65%
    22:00 +12°C° 0 mm 3 mps 746 mmHg 66%
    23:00 +12°C° 0 mm 4 mps 746 mmHg 67%

    1 June, Monday

    Time Temperature Precipitation Wind Pressure Humidity
    00:00 +11°C° 0 mm 4 mps 746 mmHg 68%
    01:00 +10°C° 0 mm 4 mps 746 mmHg 64%
    02:00 +10°C° 0 mm 4 mps 747 mmHg 61%
    03:00 +9°C° 0 mm 3 mps 747 mmHg 58%
    04:00 +10°C° 0 mm 3 mps 747 mmHg 55%
    05:00 +10°C° 0 mm 2 mps 748 mmHg 52%
    06:00 +12°C° 0 mm 2 mps 748 mmHg 49%
    07:00 +14°C° 0 mm 1 mps 749 mmHg 43%
    08:00 +18°C° 0 mm 1 mps 749 mmHg 38%
    09:00 +20°C° 0 mm 1 mps 749 mmHg 32%
    10:00 +21°C° 0 mm 1 mps 749 mmHg 35%
    11:00 +21°C° 0 mm 2 mps 748 mmHg 37%
    12:00 +22°C° 0 mm 3 mps 748 mmHg 40%
    13:00 +21°C° 0 mm 3 mps 748 mmHg 42%
    14:00 +21°C° 0 mm 3 mps 747 mmHg 43%
    15:00 +21°C° 0 mm 3 mps 747 mmHg 45%
    16:00 +21°C° 0.1 mm 3 mps 747 mmHg 50%
    17:00 +20°C° 0.1 mm 2 mps 746 mmHg 55%
    18:00 +19°C° 0.1 mm 2 mps 746 mmHg 59%
    19:00 +18°C° 0 mm 2 mps 746 mmHg 63%
    20:00 +18°C° 0 mm 1 mps 746 mmHg 66%
    21:00 +18°C° 0 mm 1 mps 746 mmHg 69%
    22:00 +16°C° 0 mm 2 mps 746 mmHg 70%
    23:00 +16°C° 0 mm 2 mps 746 mmHg 72%

    2 June, Tuesday

    Time Temperature Precipitation Wind Pressure Humidity
    00:00 +16°C° 0 mm 2 mps 746 mmHg 74%
    01:00 +15°C° 0 mm 2 mps 745 mmHg 73%
    02:00 +14°C° 0 mm 3 mps 745 mmHg 72%
    03:00 +14°C° 0 mm 3 mps 745 mmHg 70%
    04:00 +14°C° 0.6 mm 4 mps 745 mmHg 73%
    05:00 +14°C° 0.6 mm 4 mps 745 mmHg 76%
    06:00 +13°C° 0.6 mm 5 mps 745 mmHg 79%
    07:00 +13°C° 2.5 mm 5 mps 744 mmHg 82%
    08:00 +13°C° 2.5 mm 6 mps 744 mmHg 84%
    09:00 +12°C° 2.5 mm 7 mps 744 mmHg 87%
    10:00 +12°C° 1.3 mm 7 mps 743 mmHg 85%
    11:00 +12°C° 1.3 mm 7 mps 743 mmHg 84%
    12:00 +12°C° 1.3 mm 7 mps 742 mmHg 83%
    13:00 +13°C° 0 mm 6 mps 741 mmHg 82%
    14:00 +13°C° 0 mm 5 mps 741 mmHg 82%
    15:00 +14°C° 0 mm 5 mps 740 mmHg 82%
    16:00 +14°C° 0 mm 4 mps 740 mmHg 83%
    17:00 +14°C° 0 mm 4 mps 739 mmHg 85%
    18:00 +16°C° 0 mm 3 mps 739 mmHg 87%
    19:00 +16°C° 0 mm 3 mps 739 mmHg 89%
    20:00 +16°C° 0 mm 2 mps 738 mmHg 91%
    21:00 +16°C° 0 mm 2 mps 738 mmHg 92%
    22:00 +16°C° 0.2 mm 2 mps 738 mmHg 94%
    23:00 +16°C° 0.2 mm 2 mps 737 mmHg 95%
    Show more